Redmond, OR

3:21 AM PST on November 14, 2019 (GMT -0800)
Roberts Field Airport

Weather History for KRDM - September, 2019

Change the Weather History Date:

Sunday, September 1, 2019

  Actual Average Record
Temperature  
Mean Temperature 70 °F 61 °F  
Max Temperature 90 °F 81 °F 104 °F (1998)
Min Temperature 49 °F 42 °F 28 °F (1973)
Degree Days  
Heating Degree Days 0 5  
Month to date heating degree days 0 5  
Since 1 July heating degree days 47 154  
Cooling Degree Days 5 1  
Month to date cooling degree days 5 1  
Year to date cooling degree days 261 207  
Growing Degree Days 20 (Base 50)    
Moisture  
Dew Point 48 °F    
Average Humidity 51    
Maximum Humidity 77    
Minimum Humidity 24    
Precipitation  
Precipitation 0.00 in 0.01 in 0.11 in (1985)
Month to date precipitation 0.00 0.01  
Year to date precipitation 7.46 5.74  
Sea Level Pressure  
Sea Level Pressure 29.94 in    
Wind  
Wind Speed 7 mph (WNW)    
Max Wind Speed 18 mph    
Max Gust Speed 23 mph    
Visibility 10 miles    
Events      
T = Trace of Precipitation, MM = Missing Value Source: NWS Daily Summary

Daily Weather History Graph

Daily Weather History Graph

Search for Another Location

Airport or City:

Astronomy

Sep. 01, 2019 Rise Set
Actual Time 6:27 AM PDT 7:40 PM PDT
Civil Twilight 5:57 AM PDT 8:10 PM PDT
Nautical Twilight 5:21 AM PDT 8:46 PM PDT
Astronomical Twilight 4:43 AM PDT 9:24 PM PDT
Moon 9:08 AM PDT (9/1) 9:25 PM PDT (9/1)
Length of Visible Light 14h 13m
Length of Day
13h 13m
Waxing Crescent, 8% of the Moon is Illuminated
Sep 1
Waxing Crescent
Sep 5
First Quarter
Sep 13
Full
Sep 21
Last Quarter
Sep 28
New

Hourly Weather History & Observations

Time (PDT) Temp. Dew Point Humidity Pressure Visibility Wind Dir Wind Speed Gust Speed Precip Events Conditions
12:56 AM 60.1 °F 45.0 °F 57% 29.95 in 10.0 mi SW 6.9 mph - N/A   Clear
1:56 AM 59.0 °F 46.0 °F 62% 29.95 in 10.0 mi SW 3.5 mph - N/A   Clear
2:56 AM 57.0 °F 46.0 °F 67% 29.94 in 10.0 mi Calm Calm - N/A   Clear
3:56 AM 53.1 °F 44.1 °F 71% 29.95 in 10.0 mi SSE 3.5 mph - N/A   Clear
4:56 AM 51.1 °F 44.1 °F 77% 29.96 in 10.0 mi Calm Calm - N/A   Clear
5:56 AM 51.1 °F 44.1 °F 77% 29.96 in 10.0 mi South 4.6 mph - N/A   Clear
6:56 AM 52.0 °F 45.0 °F 77% 29.99 in 10.0 mi South 3.5 mph - N/A   Clear
7:56 AM 60.1 °F 48.0 °F 64% 29.99 in 10.0 mi Calm Calm - N/A   Clear
8:56 AM 64.9 °F 50.0 °F 58% 29.99 in 10.0 mi Calm Calm - N/A   Clear
9:56 AM 71.1 °F 51.1 °F 49% 29.98 in 10.0 mi Variable 3.5 mph - N/A   Clear
10:56 AM 75.9 °F 50.0 °F 40% 29.96 in 10.0 mi Calm Calm - N/A   Clear
11:56 AM 82.0 °F 48.9 °F 31% 29.94 in 10.0 mi Variable 6.9 mph - N/A   Clear
12:56 PM 84.9 °F 50.0 °F 30% 29.93 in 10.0 mi NNW 9.2 mph - N/A   Clear
1:56 PM 86.0 °F 48.9 °F 28% 29.92 in 10.0 mi West 6.9 mph - N/A   Clear
2:56 PM 87.1 °F 48.9 °F 27% 29.90 in 10.0 mi North 5.8 mph - N/A   Clear
3:56 PM 89.1 °F 48.9 °F 25% 29.89 in 10.0 mi NW 16.1 mph 21.9 mph N/A   Clear
4:56 PM 88.0 °F 48.9 °F 26% 29.89 in 10.0 mi North 15.0 mph 21.9 mph N/A   Clear
5:56 PM 84.9 °F 48.9 °F 29% 29.89 in 10.0 mi North 15.0 mph 21.9 mph N/A   Clear
6:56 PM 80.1 °F 51.1 °F 36% 29.91 in 10.0 mi NNW 12.7 mph - N/A   Clear
7:56 PM 75.9 °F 51.1 °F 42% 29.92 in 10.0 mi NW 17.3 mph - N/A   Clear
8:56 PM 72.0 °F 50.0 °F 46% 29.95 in 10.0 mi NNW 12.7 mph - N/A   Clear
9:56 PM 70.0 °F 48.9 °F 47% 29.96 in 10.0 mi NNW 6.9 mph - N/A   Clear
10:56 PM 64.9 °F 48.0 °F 54% 29.97 in 10.0 mi NNW 5.8 mph - N/A   Clear
11:56 PM 64.0 °F 48.0 °F 56% 29.97 in 10.0 mi West 4.6 mph - N/A   Clear